Regional Weather Roundup
Issued by NWS Newport/Morehead, NC

Current Version | Previous Version | Graphics & Text | Print | Product List | Glossary Off
Versions: 1 2 3 4 5 6 7 8 9 10 11 12 13 14 15 16 17 18 19 20 21 22 23 24 25 26 27 28 29 30 31 32 33 34 35 36 37 38 39 40 41 42 43 44 45 46 47 48 49 50

000
ASUS42 KMHX 302010
RWRMHX
WEATHER ROUNDUP FOR EASTERN NORTH CAROLINA
NATIONAL WEATHER SERVICE NEWPORT/MOREHEAD CITY NC
400 PM EDT SAT AUG 30 2014

NOTE: "FAIR" INDICATES FEW OR NO CLOUDS BELOW 12,000 FEET
WITH NO SIGNIFICANT WEATHER AND/OR OBSTRUCTIONS TO VISIBILITY

NCZ015>017-031-032-045>047-102-103-302100-
NORTH COAST

CITY           SKY/WX    TMP DP  RH WIND       PRES   REMARKS
EDENTON        MOSUNNY   85  73  67 SE8       30.15F
ELIZABETH CITY SUNNY     85  73  67 SE12      30.16F
KITTY HAWK     CLEAR     83  74  74 E8        30.17S
MANTEO         MOSUNNY   83  74  72 SE9       30.17F

$$

NCZ045>047-081-094-103-104-302100-
CENTRAL COAST

CITY           SKY/WX    TMP DP  RH WIND       PRES   REMARKS
FRISCO         MOSUNNY   83  73  72 S7        30.17
SWANQUARTER      N/A     88 N/A N/A S9        30.12S

$$

NCZ095-097-098-100-101-302100-
SOUTHERN COAST

CITY           SKY/WX    TMP DP  RH WIND       PRES   REMARKS
BEAUFORT       PTSUNNY   84  74  71 S10       30.16F
CEDAR ISLAND     N/A     86 N/A N/A SE8       30.21S
JACKSONVILLE   MOSUNNY   87  70  56 S10       30.15F
NEWPORT        NOT AVBL
PINEY ISLAND   CLEAR     89  74  60 S8        30.15F
WILMINGTON     MOSUNNY   85  72  65 SE9       30.16S


$$

NCZ011>013-027>030-043-044-078>080-089-090>093-098-302100-
COASTAL PLAIN

CITY           SKY/WX    TMP DP  RH WIND       PRES   REMARKS
AHOSKIE        MOSUNNY   86  72  64 SE6       30.15F
CLINTON        NOT AVBL
ELIZABETHTOWN  PTSUNNY   83  74  74 CALM      30.14F
GOLDSBORO      MOSUNNY   91  70  49 SE7       30.12F
GREENVILLE     SUNNY     88  72  58 SE3       30.16F
HAVELOCK       SUNNY     88  71  57 S8        30.17F
KENANSVILLE    PTSUNNY   84  69  60 SE6       30.16S
KINSTON        MOSUNNY   90  66  45 SE3       30.15F
NEW BERN       CLOUDY    89  74  60 S7        30.16F
RICHLANDS      CLOUDY    82  72  69 CALM      30.16F
ROANOKE RAPIDS NOT AVBL
ROCKY MOUNT    MOSUNNY   89  70  53 SE5       30.15F
WASHINGTON     SUNNY     87  70  56 S5        30.15F
WHITEVILLE     MOSUNNY   87  72  60 SE9       30.13F

$$

AMZ130-135-150-152-154-156-158-170-250-252-270-ANZ085-086-088-633-658-670-302100-
MARINE OBSERVATIONS

STATION/POSITION TIME  TEMP    WIND        PRES    WAVE   SWELL
                       AIR SEA DIR/SP/G            HT/PER HT/PER
                 (UTC) (F)     (DEG/KT/KT) (MB)    (FT/S) (FT/S)
CHESAPEAKE LIGHT 1900   76     130/ 13/ 14 1023.1
BUOY 44014       2000   78 78  120/  8/ 10 1021.9    3/ 8   3/ 8
DUCK             2000   80 78  120/ 11/ 12 1021.2
2E DUCK          2000                        N/A     2/ 6
OREGON INLET     2000   81 78  120/  9/ 12 1021.8
BUOY 44095       2000      77                N/A     3/ 8
20E OREGON INLET NOT AVBL
HATTERAS CG      2000   84 81  200/  5/  8 1022.1
DIAMOND BUOY     1900   80     170/  6/  8 1022.4    3/ 8   3/ 8
CAPE LOOKOUT     1900   80     150/  6/  6 1021.9
BEAUFORT LAB     2000   81 81  190/  8/  9 1020.9
30 SE NEW RIVER  1900   81 83  110/ 10/ 12 1021.8
5 SE WRIGHTSVILL 2000   79 82  150/ 10/ 12   N/A
BUOY 41002       1906   82 83  130/ 10/ 12 1021.9    4/ 8   3/ 8
BUOY 41004       2000   83 84   90/  8/ 10 1019.8    2/ 8   2/ 8

$$


USA.gov is the U.S. government's official web portal to all federal, state and local government web resources and services.